Location: Eferding
(48.3167°N, 14.0167°E)
Time: 19:01:36
(UTC+00:00)

Cosmos 2082 - Pass Details

Date: 12 November 2019
Orbit: 836 x 854 km, 71.0° (Epoch: 14 December)

Event Time Altitude Azimuth Distance (km) Brightness Sun altitude
Rises 18:04:38 0° 329° (NNW) 3,397 7.3 -25.8°
Reaches altitude 10° 18:07:06 10° 327° (NNW) 2,458 6.5 -26.2°
Maximum altitude 18:12:39 63° 248° (WSW) 935 4.0 -27.1°
Enters shadow 18:15:05 33° 180° (S) 1,366 4.7 -27.5°
